Location: Sollberg
(42.7389°N, 93.6369°W)
Time: 12:03:47
(UTC+00:00)

BlueWalker 3 - Visible Passes

Search period start: 10 October 2024 00:00
Search period end: 20 October 2024 00:00
Orbit: 473 x 485 km, 53.2° (Epoch: 09 October)

Date Brightness Start Highest point End Pass type
(mag) Time Alt. Az. Time Alt. Az. Time Alt. Az.
10 Oct 3.2 10:37:25 27° NNW 10:37:25 27° NNW 10:40:34 10° NE visible
11 Oct 3.8 10:10:17 23° NNE 10:10:17 23° NNE 10:12:14 10° NE visible
11 Oct 4.0 11:45:29 10° NW 11:47:52 16° N 11:50:15 10° NE visible
12 Oct 4.7 09:43:04 15° NNE 09:43:04 15° NNE 09:43:52 10° NE visible
12 Oct 4.0 11:17:15 11° NW 11:19:24 16° N 11:21:48 10° NE visible
13 Oct 3.9 10:50:01 15° NNW 10:50:55 16° N 10:53:20 10° NE visible
14 Oct 4.1 10:22:42 16° N 10:22:42 16° N 10:24:51 10° NE visible
15 Oct 4.6 09:55:23 14° NNE 09:55:23 14° NNE 09:56:20 10° NE visible
15 Oct 3.9 11:30:07 10° NW 11:32:51 19° NNE 11:35:36 10° ENE visible
16 Oct 4.0 11:02:14 13° NNW 11:04:16 19° NNE 11:06:56 10° ENE visible
17 Oct 4.0 10:34:53 17° N 10:35:38 18° N 10:38:15 10° NE visible
18 Oct 4.3 10:07:34 17° NNE 10:07:34 17° NNE 10:09:33 10° NE visible
18 Oct 2.8 11:42:08 10° NW 11:45:41 43° NNE 11:49:14 10° ESE visible
19 Oct 5.0 09:40:15 12° NE 09:40:15 12° NE 09:40:48 10° NE visible
19 Oct 2.9 11:14:26 16° NW 11:17:02 39° NNE 11:20:31 10° E visible
